Location: Ay?beleni
(36.6500°N, 30.3000°E)
Time: 06:52:03
(UTC+00:00)

Cosmos 1726 - Visible Passes

Search period start: 11 August 2020 00:00
Search period end: 21 August 2020 00:00
Orbit: 481 x 500 km, 82.5° (Epoch: 10 August)

Date Brightness Start Highest point End Pass type
(mag) Time Alt. Az. Time Alt. Az. Time Alt. Az.
11 Aug 3.7 00:34:55 33° NNE 00:34:55 33° NNE 00:37:06 10° NNE visible
12 Aug 4.5 00:12:32 22° NE 00:12:32 22° NE 00:14:05 10° NNE visible
12 Aug 5.2 23:50:09 14° NE 23:50:09 14° NE 23:50:54 10° NE visible
13 Aug 4.5 01:24:39 13° NW 01:24:39 13° NW 01:25:22 10° NW visible
14 Aug 4.5 01:02:15 15° NNW 01:02:15 15° NNW 01:03:08 10° NNW visible
15 Aug 4.6 00:39:49 15° NNW 00:39:49 15° NNW 00:40:38 10° N visible
16 Aug 4.9 00:17:22 14° N 00:17:22 14° N 00:17:57 10° N visible
16 Aug 5.3 23:54:54 12° N 23:54:54 12° N 23:55:08 10° N visible
